FLOCK 4Y 33

导读 | 星芒AI

FLOCK 4Y 33 是由美国公司 Planet Labs 运营的 Dove 系列小型地球观测卫星之一,属于 Flock 4Y 组网星座的一部分。该卫星主要用于高分辨率光学成像,支持全球范围内的每日重访能力,广泛应用于环境监测、农业管理、灾害评估等领域。卫星采用标准化设计,具有低成本、快速部署的特点,是商业遥感领域的重要组成部分。

基本信息
目录编号:
55042
目录名称:
FLOCK 4Y 33
国际标识:
2023-001AK
轨道中心:
EARTH
卫星名称:
FLOCK 4Y 33
卫星全名:
--
卫星状态:
已陨落 最后检测时间 2025-09-24
发射日期:
2023-01-03 UTC
国别 :
美国 (US)
星等 :
--
轨道信息
数据来源 国际轨道数据
星历时间: 2025-09-24T05:15:38+0800
轨道信息已过期74天
半长轴: 6579.29km
偏心率: 0.0014044
轨道倾角: 97.336°
近地点辐角 273.122°
升交点赤经 345.219°
平近点角 86.846°
近地点: 191.915km
远地点: 210.395km
周期: 88.517分钟
每日圈数: 16.268004
详细信息
使用方式:
暂无